Content
SEND FEEDBACK

Daily
Averages
Monthly
Summary
United States of America

MERIZO, GUAM


Home > North America > United States > Guam
Elevation: 3 meters     Latitude: 13 14N     Longitude: 144 39E

WEATHER
 
SELECT A DAY
Number of Records: 342,429;   Date Range: 1/1/95 - 9/3/14
 
SHARE

PRINT THIS DATA

[ ← Previous Day ]
WEATHER ALMANAC - 12 NOVEMBER, 2013
[ Next Day → ]
[ °F ]   °C
Weather ElementAverageHighLow
Temperature27.3 °C29.3 °C (12:58 pm)25.2 °C (3:58 am)
Dewpoint24.1 °C25 °C (12:08 pm)23.4 °C (6:58 pm)
Humidity82.8 %94 % (3:58 am)74 % (12:03 pm)
Barometer1009.8 hPa1011.5 hPa (9:03 pm)1008.5 hPa (3:58 am)
Wind Speed15.1 km/h20.4 km/h (1:58 pm)
Wind Gust31.5 km/h (4:25 pm)
Weather ElementAverage
Visibility16.1 km
Wind DirectionENE (58.2 °)

Weather ElementTotal
Precipitation---
Cooling Degree Days8.9 (Base 18.3)
Growing Degree Days17.3 (Base 10)
Averaged from 33 records on 12 November, 2013
WEATHER CONDITIONS BREAKOUT
WIND DIRECTION BREAKOUT
WEATHER BY HOUR - 12 NOVEMBER, 2013
[ °F ]   °C
Local TimeTemperatureDewpointHumidityBarometerVisibilityWind DirectionWind SpeedGust SpeedPrecipitationEventsConditions
1:58 AM25.5 °C23.7 °C90 %1009.5 hPa16.1 kmNE (50°)13 km/hClear
2:58 AM25.7 °C23.6 °C88 %1008.8 hPa16.1 kmNE (50°)16.7 km/hClear
3:58 AM25.2 °C24.1 °C94 %1008.5 hPa16.1 kmNE (50°)11.1 km/hClear
4:58 AM25.3 °C23.6 °C90 %1008.5 hPa16.1 kmNE (50°)13 km/hClear
5:58 AM25.4 °C23.7 °C90 %1009.5 hPa16.1 kmENE (60°)16.7 km/hClear
6:58 AM25.7 °C23.5 °C88 %1010.2 hPa16.1 kmNE (50°)13 km/hClear
7:58 AM27.3 °C23.8 °C81 %1010.5 hPa16.1 kmENE (60°)13 km/hClear
8:58 AM28 °C24.2 °C80 %1011.2 hPa16.1 kmENE (70°)16.7 km/hPartly Cloudy
9:58 AM28.7 °C23.9 °C75 %1011.2 hPa16.1 kmENE (70°)14.8 km/hPartly Cloudy
10:58 AM28.6 °C24.3 °C77 %1010.5 hPa16.1 kmEast (80°)16.7 km/hPartly Cloudy
11:58 AM29 °C24.5 °C77 %1009.8 hPa16.1 kmNE (50°)16.7 km/hScattered Clouds
12:03 PM29 °C24 °C74 %1010.8 hPa16.1 kmNE (50°)14.8 km/hMostly Cloudy
12:08 PM29 °C25 °C79 %1010.8 hPa16.1 kmENE (70°)16.7 km/hMostly Cloudy
12:13 PM29 °C25 °C79 %1010.8 hPa16.1 kmNE (40°)18.5 km/hMostly Cloudy
12:38 PM29 °C24 °C74 %1010.5 hPa16.1 kmENE (70°)14.8 km/hScattered Clouds
12:48 PM29 °C24 °C74 %1010.5 hPa16.1 kmENE (60°)13 km/hMostly Cloudy
12:58 PM29.3 °C24.4 °C75 %1009.5 hPa16.1 kmNE (50°)16.7 km/hMostly Cloudy
1:03 PM29 °C24 °C74 %1010.2 hPa16.1 kmEast (80°)16.7 km/hScattered Clouds
1:58 PM28.9 °C24.5 °C77 %1008.5 hPa16.1 kmENE (70°)20.4 km/hScattered Clouds
2:49 PM29 °C24 °C74 %1009.5 hPa16.1 kmNNE (30°)18.5 km/hScattered Clouds
2:58 PM28.4 °C24 °C77 %1008.5 hPa16.1 kmNE (40°)18.5 km/hScattered Clouds
3:58 PM28.3 °C24.5 °C80 %1008.8 hPa16.1 kmNE (40°)16.7 km/hPartly Cloudy
4:25 PM28 °C25 °C84 %1009.8 hPa16.1 kmNE (40°)20.4 km/h31.5 km/hRainLight Rain
4:42 PM27 °C25 °C89 %1009.8 hPa16.1 kmNE (40°)11.1 km/hScattered Clouds
4:58 PM26.6 °C24.3 °C87 %1008.8 hPa16.1 kmENE (70°)14.8 km/h0 mmPartly Cloudy
5:58 PM26.3 °C23.9 °C87 %1009.5 hPa16.1 kmENE (60°)13 km/hPartly Cloudy
6:58 PM25.5 °C23.4 °C88 %1009.8 hPa16.1 kmENE (70°)9.3 km/hPartly Cloudy
7:58 PM26 °C23.5 °C86 %1010.2 hPa16.1 kmENE (60°)16.7 km/hClear
8:58 PM26 °C23.9 °C88 %1010.5 hPa16.1 kmENE (60°)13 km/hMostly Cloudy
9:03 PM26 °C24 °C89 %1011.5 hPa16.1 kmENE (70°)11.1 km/hScattered Clouds
9:58 PM25.7 °C23.5 °C88 %1010.5 hPa16.1 kmENE (70°)14.8 km/hClear
10:58 PM25.9 °C24 °C89 %1009.8 hPa16.1 kmENE (70°)11.1 km/hScattered Clouds
11:58 PM25.5 °C23.5 °C89 %1009.8 hPa16.1 kmENE (70°)16.7 km/hPartly Cloudy
Hourly data recorded from PGUA, located 0 kilometers away from Merizo, Guam







STORIES FROM OUR PARTNERS